Great Falls, MT

4:04 PM MDT on July 26, 2017 (GMT -0600)
Great Falls International

Weather History for KGTF - November, 2014

Change the Weather History Date:

Sunday, November 23, 2014

  Actual Average Record
Temperature  
Mean Temperature 34 °F 30 °F  
Max Temperature 43 °F 40 °F 63 °F (1942)
Min Temperature 24 °F 21 °F -25 °F (1985)
Degree Days  
Heating Degree Days 31 35  
Month to date heating degree days 835 696  
Since 1 July heating degree days 1567 1716  
Cooling Degree Days 0 0  
Month to date cooling degree days 0 0  
Year to date cooling degree days 350 298  
Moisture  
Dew Point 20 °F    
Average Humidity 57    
Maximum Humidity 81    
Minimum Humidity 33    
Precipitation  
Precipitation 0.00 in 0.02 in 1.14 in (1892)
Month to date precipitation 0.63 0.46  
Year to date precipitation 18.28 14.07  
Snow  
Snow 0.00 in 0.30 in 11.10 in (1892)
Month to date snowfall 6.3 6.0  
Since 1 July snowfall 7.4 11.6  
Since 1 September snowfall 7.4 11.3  
Snow Depth 0.00 in    
Sea Level Pressure  
Sea Level Pressure 29.92 in    
Wind  
Wind Speed 15 mph (WSW)    
Max Wind Speed 30 mph    
Max Gust Speed 37 mph    
Visibility 10 miles    
Events      
T = Trace of Precipitation, MM = Missing Value Source: NWS Daily Summary

Daily Weather History Graph

Daily Weather History Graph

Search for Another Location

Airport or City:

Trip Planner

Search our weather history database for the weather conditions in past years. The results will help you decide how hot, cold, wet, or windy it might be!

Date:

Astronomy

Nov. 23, 2014 Rise Set
Actual Time 7:41 AM MST 4:41 PM MST
Civil Twilight 7:07 AM MST 5:15 PM MST
Nautical Twilight 6:29 AM MST 5:53 PM MST
Astronomical Twilight 5:52 AM MST 6:30 PM MST
Moon 8:40 AM MST (11/23) 6:08 PM MST (11/23)
Length of Visible Light 10h 08m
Length of Day
8h 59m
New Moon, 2% of the Moon is Illuminated
Nov 23
New Moon
Nov 29
First Quarter
Dec 6
Full
Dec 14
Last Quarter
Dec 21
New

Hourly Weather History & Observations

Time (MST) Temp. Windchill Dew Point Humidity Pressure Visibility Wind Dir Wind Speed Gust Speed Precip Events Conditions
12:53 AM 32.0 °F 21.6 °F 19.9 °F 61% 29.77 in 10.0 mi WSW 15.0 mph - N/A   Mostly Cloudy
1:53 AM 32.0 °F 22.5 °F 19.9 °F 61% 29.81 in 10.0 mi WSW 12.7 mph - N/A   Overcast
2:53 AM 28.9 °F 19.8 °F 19.0 °F 67% 29.85 in 10.0 mi SW 10.4 mph - N/A   Mostly Cloudy
3:53 AM 30.9 °F 22.2 °F 19.0 °F 61% 29.88 in 10.0 mi WSW 10.4 mph - N/A   Overcast
4:53 AM 30.9 °F 22.8 °F 21.0 °F 67% 29.91 in 10.0 mi West 9.2 mph - N/A   Overcast
5:53 AM 30.0 °F 23.2 °F 21.0 °F 69% 29.96 in 10.0 mi NNW 6.9 mph - N/A   Overcast
6:53 AM 27.0 °F 18.7 °F 21.9 °F 81% 29.99 in 10.0 mi West 8.1 mph - N/A   Partly Cloudy
7:53 AM 28.9 °F 19.8 °F 21.9 °F 75% 30.00 in 10.0 mi SSW 10.4 mph - N/A   Overcast
8:53 AM 30.0 °F 20.5 °F 21.0 °F 69% 30.01 in 10.0 mi SW 11.5 mph - N/A   Mostly Cloudy
9:53 AM 35.1 °F 25.5 °F 21.0 °F 57% 30.01 in 10.0 mi WSW 15.0 mph - N/A   Clear
10:53 AM 41.0 °F 30.5 °F 17.1 °F 38% 30.00 in 10.0 mi West 26.5 mph 32.2 mph N/A   Clear
11:53 AM 42.1 °F 32.3 °F 15.1 °F 34% 29.98 in 10.0 mi West 24.2 mph 33.4 mph N/A   Clear
12:53 PM 42.1 °F 32.1 °F 16.0 °F 35% 29.96 in 10.0 mi WSW 25.3 mph 33.4 mph N/A   Clear
1:53 PM 41.0 °F 30.7 °F 16.0 °F 36% 29.94 in 10.0 mi West 25.3 mph 35.7 mph N/A   Clear
2:53 PM 41.0 °F 31.6 °F 17.1 °F 38% 29.94 in 10.0 mi WSW 20.7 mph 27.6 mph N/A   Clear
3:53 PM 37.0 °F 28.1 °F 19.9 °F 50% 29.93 in 10.0 mi SSW 15.0 mph - N/A   Clear
4:53 PM 37.9 °F 28.5 °F 21.0 °F 51% 29.92 in 10.0 mi SW 17.3 mph - N/A   Overcast
5:53 PM 39.0 °F 30.3 °F 21.0 °F 49% 29.90 in 10.0 mi SW 16.1 mph - N/A   Overcast
6:53 PM 37.9 °F 29.2 °F 21.9 °F 53% 29.90 in 10.0 mi SW 15.0 mph - N/A   Overcast
7:53 PM 36.0 °F 28.5 °F 21.9 °F 57% 29.88 in 10.0 mi SW 10.4 mph - N/A   Mostly Cloudy
8:53 PM 35.1 °F 26.4 °F 21.9 °F 59% 29.88 in 10.0 mi SSW 12.7 mph - N/A   Clear
9:53 PM 37.0 °F 28.1 °F 23.0 °F 57% 29.87 in 10.0 mi SW 15.0 mph - N/A   Overcast
10:53 PM 36.0 °F 25.6 °F 23.0 °F 59% 29.86 in 10.0 mi WSW 18.4 mph - N/A   Overcast
11:53 PM 35.1 °F 26.9 °F 24.1 °F 64% 29.89 in 10.0 mi WSW 11.5 mph - N/A   Overcast